CAPE
926 1515 1786 2171 1247 104 78 66 72 36 8 63 6 35 29 27 3 0 0 0 48 213 212 292 343 441 383 487 439 380 329 418 427 415 410 373 356 462 609 649 544 534 522 680 709 983 1095 677 459
2317 1957 2266 2318 250 51 95 171 120 87 45 63 33 30 0 0 0 0 6 6 201 195 280 313 292 276 237 254 390 365 234 313 353 347 323 328 315 466 528 607 682 590 651 595 651 688 896 589 372
2361 2316 1635 59 70 87 49 190 205 238 229 7 0 0 2 0 15 135 112 242 243 223 330 339 570 504 473 433 518 632 367 285 269 293 324 402 350 411 443 383 404 627 651 595 627 474 555 299 508
2230 2892 899 77 49 25 19 102 263 292 227 9 0 0 0 33 38 97 258 261 113 94 132 481 719 627 677 718 704 592 602 448 300 449 492 473 449 469 510 456 480 601 673 393 629 445 291 235 635
1951 1290 48 46 59 16 0 138 220 298 302 250 0 0 21 48 19 66 107 172 311 162 282 546 882 936 874 806 727 671 590 594 599 545 516 435 617 891 912 921 930 777 626 557 620 535 334 516 286
695 83 126 41 57 17 0 10 103 260 229 200 0 0 0 16 11 52 112 171 92 68 102 244 573 877 1085 1045 911 957 923 954 1051 939 946 907 834 842 518 788 814 787 551 618 258 308 363 501 490
294 122 167 146 68 26 0 2 5 45 91 10 0 0 2 20 15 26 32 50 74 163 156 158 330 963 1021 921 863 1025 896 974 833 900 828 723 609 577 489 534 871 992 911 645 566 538 285 503 658
414 97 83 122 165 74 0 0 0 25 7 0 13 15 20 43 43 17 24 54 60 99 183 452 343 282 405 727 1377 1210 1045 766 666 1043 867 779 839 611 716 656 622 974 569 877 671 577 550 592 393
450 142 54 51 107 139 229 1 0 0 1 6 47 6 23 36 6 4 15 49 81 124 142 171 625 172 263 436 897 750 926 840 919 635 854 273 773 419 446 683 1 0 297 880 769 711 342 397 313
172 99 105 105 59 51 172 19 2 3 38 7 0 29 50 3 0 0 2 26 43 65 154 205 212 136 148 288 350 564 309 338 680 594 301 905 237 286 595 373 173 20 17 555 890 823 538 175 144
150 186 152 159 271 232 185 75 100 195 77 43 16 48 47 34 45 31 3 14 42 84 194 333 334 265 97 196 417 275 544 708 545 965 1100 1350 1050 746 688 660 555 191 390 458 473 370 292 146 86
247 255 299 403 356 383 475 316 112 91 20 25 13 38 43 23 20 29 45 37 62 109 285 340 411 556 341 235 362 387 665 814 1037 977 1357 1594 1040 1128 1337 1095 716 985 788 1096 497 487 359 305 235
420 471 423 543 510 516 509 470 193 174 0 0 0 0 5 7 3 0 0 1 22 118 344 401 599 665 500 464 374 591 676 698 879 1206 1354 1161 1431 1224 1252 1430 1039 986 1074 1162 763 653 493 865 495
375 491 586 609 669 681 603 540 395 319 0 0 0 0 0 0 0 0 0 0 2 60 237 464 737 826 704 701 840 999 1119 1193 1040 1030 1609 1508 1588 1451 1271 1511 563 907 647 438 809 997 996 1016 777
348 342 459 582 590 499 665 712 719 452 2 0 0 46 83 146 77 39 11 5 49 55 122 469 787 894 1151 1237 1478 1389 1037 958 1072 1224 1437 1629 1613 1482 1486 1051 1344 799 769 1029 800 960 650 678 674
317 335 413 297 415 411 546 751 756 542 77 4 4 145 163 297 194 98 84 135 401 261 200 497 624 909 1304 1392 1659 1372 1456 1311 1347 1463 1881 1625 1590 1232 1452 1528 1231 868 806 58 8 214 466 325 529
289 271 279 280 358 504 518 781 826 738 350 111 105 146 191 326 474 518 448 528 703 670 395 611 652 798 1354 1643 1773 1746 1732 1652 1275 1309 1739 2112 1759 2165 1917 1656 1853 1173 364 190 446 302 500 674 383
124 219 177 191 308 270 342 647 819 891 681 354 319 382 302 409 573 708 737 757 805 898 748 728 737 902 1189 1544 1801 1624 1537 1496 1324 1413 1683 2368 2378 2263 2235 1383 1730 1682 317 310 763 459 198 1095 786
114 182 174 100 42 387 393 619 703 841 886 680 474 484 515 501 616 735 832 877 933 1046 1038 984 895 1047 1388 1464 1538 1374 1300 1282 1273 1677 1978 2418 2286 2355 1797 1914 1587 1182 1309 1351 651 565 681 889 803
105 200 214 103 108 118 347 293 708 830 915 856 712 578 586 543 646 736 871 946 1026 1118 1240 1318 1309 1440 1758 1582 1467 1336 1346 1560 1863 1507 1893 2402 2486 2442 2112 1799 1712 1549 1519 1332 837 206 381 625 962
88 157 206 93 39 41 88 77 410 769 812 899 809 760 661 655 665 718 897 905 968 1154 1289 1457 1586 1690 2000 1849 1769 1789 1924 2002 1410 1288 1583 2155 2561 2422 2510 2272 2036 2031 1570 1551 807 261 706 436 189
64 90 76 27 26 85 28 1 0 535 826 822 855 902 912 817 706 726 803 869 957 1080 1324 1429 1740 1834 2121 2189 1910 1882 1726 1282 984 1053 1432 1840 2528 2558 2518 2497 2139 1902 1466 1365 479 190 467 983 220
48 98 60 30 0 1 7 31 287 377 677 796 848 854 933 978 884 782 756 754 688 828 1075 1485 1821 2083 2114 2279 2258 2101 2117 1322 1246 1050 1977 2094 2779 2754 2542 2654 2239 2362 1381 1188 913 324 715 535 299
0 21 21 1 0 3 0 64 193 73 570 582 814 836 862 915 978 977 861 849 605 510 770 1166 1737 2394 2435 2314 2485 2321 2151 1923 1534 1325 1472 1421 2134 2816 2798 2539 2611 2425 1854 1246 850 656 684 861 839
0 0 0 0 1 4 31 78 181 19 107 92 155 707 867 936 906 997 1025 891 792 578 749 1043 1688 2329 2646 2535 2482 2582 2551 2389 2092 2192 1539 1212 1679 2032 2854 2971 2747 2230 2424 1815 988 1203 1026 741 278
0 0 0 0 1 37 3 45 38 91 62 166 137 394 792 894 812 973 1152 1064 921 748 821 1119 1665 2387 2690 2609 2555 2786 2806 2492 2163 1763 1587 1388 1057 1544 2778 2980 2724 2427 2475 2172 1728 1050 602 335 290
0 0 0 0 0 49 11 22 27 39 60 196 419 585 721 819 730 928 1119 1104 1103 976 984 1358 1743 2485 2668 2497 2739 2775 2922 2747 1867 1527 1908 1642 1541 1546 2315 2623 2681 2457 2599 2372 2004 1295 794 279 98
0 0 0 0 0 7 46 7 40 69 29 181 482 683 729 768 823 908 964 1087 1167 1171 1274 1530 1807 2471 2551 2247 2441 2522 2628 2834 2637 2212 2004 1963 1782 1696 2206 2799 2766 2775 2737 2597 2282 1592 1223 755 161
0 0 0 0 0 0 47 62 39 0 3 44 529 729 764 829 896 904 970 1198 1260 1334 1468 1706 1909 2338 2400 2108 2233 2402 2387 2389 2728 2342 2339 2417 2416 2320 2345 2860 3042 2940 2784 2670 2609 2211 1626 1429 570
0 0 0 0 0 0 1 1 0 0 34 268 677 795 926 893 929 935 1055 1232 1400 1493 1578 1728 1968 2144 2321 2056 1834 1702 2035 2187 2218 2331 2120 2263 2478 2627 2799 2868 3108 3162 3061 2872 2768 2479 1745 1711 1204
CIN
-394 -257 -141 -61 -22 -4 -2 -3 -2 -5 -3 -3 -26 -8 -13 -3 -11 0 0 0 -68 -1 -1 -1 -4 -1 -3 0 0 -4 -4 0 0 -2 -5 -1 -9 -8 -1 -2 -25 -27 -28 -13 -12 -3 0 -3 -3
-94 -125 -100 -19 -8 -7 -3 -3 -4 -3 -12 -20 -33 -4 0 0 0 0 -11 -34 -17 -3 -1 -1 -9 -17 -20 -14 -4 -6 -9 -10 -2 -9 -12 0 -8 -9 -5 -1 -4 -11 -12 -20 -20 -10 -6 -4 -8
-170 -149 -15 -6 -27 -7 -4 -4 -4 -4 -3 -1 0 -8 -42 0 -32 -5 -4 -8 -16 -2 -1 -8 -6 -2 -3 -5 -3 -8 0 -12 -11 -19 -18 0 -6 -8 -10 -11 -14 -5 -5 -16 -29 -25 -16 -11 -7
-42 -18 -17 -4 -2 -2 -2 -5 -1 -4 -1 -4 0 0 0 -49 -43 -10 -3 -4 -43 -31 -4 -4 0 -2 0 0 0 0 -10 -2 -5 -4 -2 0 -1 -1 0 0 -4 -4 -6 -20 -11 -20 -17 -15 -4
-94 -21 -3 -4 -11 -8 -1 -8 -3 -4 -2 -3 0 0 -109 -86 -94 -50 -47 -17 -5 -7 -3 -1 0 0 0 0 -2 -11 0 -1 0 -2 0 -1 0 0 0 0 0 0 -5 -9 -5 -11 -16 -11 -11
-41 -5 -6 -3 -5 -33 0 -23 -15 -1 -3 -2 0 0 0 -142 -99 -52 -34 -24 -67 -59 -21 -17 -13 0 0 0 0 0 0 0 0 0 0 0 -4 -1 -5 0 -1 -1 -11 -5 -12 -17 -14 -7 -9
-17 -3 -4 -4 -2 -20 -1 -1 -1 -40 -27 -25 0 0 -120 -144 -104 -65 -49 -59 -52 -10 -12 -25 -1 0 0 0 -2 0 -3 0 -3 0 0 0 -2 -4 -7 -5 -1 0 0 -2 -1 -5 -10 -3 -2
-5 -2 -3 -3 -2 -6 0 0 0 -56 -103 0 -106 -155 -169 -141 -149 -145 -123 -105 -54 -19 -7 -14 -8 -22 -7 -18 0 0 0 -5 -39 0 -1 -6 -8 -16 -9 -3 -4 0 -1 0 0 -3 -3 -1 -9
-5 -5 -5 -6 -2 -6 -5 -6 0 0 -44 -126 -73 -126 -164 -177 -197 -145 -212 -122 -59 -18 -14 -21 -3 -12 -2 -1 -6 -10 -8 -12 -12 -10 -10 -32 -4 -10 -20 -14 -55 0 -26 0 0 0 -13 -9 -22
-3 -14 -24 -7 -3 -25 -12 -71 -68 -63 -90 -158 0 -138 -168 -150 0 0 -183 -162 -154 -108 -27 -20 -14 -22 -11 -2 -22 -6 -6 -10 -7 -4 -17 -8 -3 0 -12 -20 -60 -33 -82 -7 0 0 -9 -27 -7
-6 -19 -12 -12 -4 -2 -5 -49 -36 -4 -25 -109 -149 -167 -191 -205 -163 -152 -40 -129 -125 -151 -42 -2 -4 -9 -76 -14 -2 -2 -9 -3 -2 0 0 -4 -2 -4 -16 -13 -12 -38 -16 -10 -2 -5 -3 -1 -1
-5 -4 -11 -12 -27 -3 -2 -2 -9 -19 -45 -115 -177 -181 -186 -211 -185 -151 -131 -137 -94 -62 -11 -3 -17 -36 -17 -20 -4 -1 -3 -17 -2 -1 -3 -1 -8 -4 -2 -1 -23 -14 -9 -9 -12 -9 -3 -1 -1
-6 -10 -16 -23 -26 -11 -14 -2 -21 -40 0 0 0 0 -189 -221 -223 0 0 -120 -164 -71 -17 -12 -16 -39 -41 -43 -9 -1 -1 -1 -8 0 -2 -9 -1 -7 0 -1 -8 -2 -6 -6 -2 -1 -1 -4 -18
-7 -4 -17 -16 -19 -21 -5 -17 -16 -43 0 0 0 0 0 0 0 0 0 0 -105 -144 -59 -15 -6 -30 -29 -30 -5 0 -2 -1 -1 -2 -2 -1 -1 -4 -3 -2 -2 -2 -4 -1 -11 -4 -7 -12 -5
-20 -6 -13 -17 -31 -33 -12 -30 -2 -53 -78 0 0 -155 -101 -56 -73 -106 -150 -183 -156 -155 -113 -15 -6 -15 -16 -2 -2 -1 -1 -1 -2 -1 -3 -6 -9 -1 -3 -1 -8 -2 -7 -5 -3 -1 -3 -3 -10
-5 -5 -4 -13 -20 -32 -24 -6 -27 -59 -95 -174 -204 -101 -84 -41 -64 -109 -110 -81 -53 -61 -95 -50 -18 -4 -13 -1 -1 -1 -1 -1 -1 -2 -8 -25 -23 -29 -17 -2 -9 -5 -2 -3 -1 -5 -1 -3 -14
-5 -12 -5 -14 -16 -19 -19 -19 -38 -52 -70 -99 -107 -108 -106 -66 -32 -22 -34 -19 -16 -18 -79 -54 -34 -2 -2 -1 -1 -2 -2 -2 -1 -1 -3 -17 -9 -2 -4 -7 -4 -8 -2 -5 -3 -12 -9 -3 -20
-14 -8 -3 -4 -10 -29 -6 -16 -46 -54 -47 -75 -85 -94 -110 -76 -24 -14 -2 -2 -6 -12 -50 -51 -38 -7 -5 -1 -4 -1 -1 -2 0 -2 0 -1 -1 0 -3 -2 -1 -4 -3 -4 -4 -11 -2 -9 -7
-69 -3 -6 -65 -135 -10 -2 -6 -35 -61 -49 -66 -73 -83 -88 -75 -37 -17 -11 -3 -4 -7 -32 -44 -34 -37 -21 -13 -2 -2 -1 -1 -3 -1 -11 0 0 0 -8 -2 -3 -2 -6 -10 -6 -3 -2 -3 -19
-38 -2 -9 -56 -88 -71 -3 -2 -13 -44 -57 -50 -60 -78 -77 -82 -41 -31 -20 -6 -3 -2 -13 -23 -20 -30 -27 -1 -1 -1 -1 -1 -4 -2 -2 -1 0 0 -1 -3 -7 -6 -7 -11 -1 -22 -13 -21 -5
-26 -4 -8 -35 -108 -102 -16 -14 -7 -35 -60 -45 -53 -54 -68 -84 -71 -39 -29 -17 -6 -3 -4 -21 -24 -29 -25 -4 -2 -1 -3 -9 -2 -2 -1 -1 0 -1 -1 0 -1 -4 -7 -7 -15 -47 -4 -11 -2
-21 -18 -25 -100 -102 -16 -27 -40 0 -11 -51 -75 -68 -40 -35 -61 -76 -40 -23 -20 -13 -3 -2 -10 -25 -29 -26 -19 -2 -1 -1 -2 -2 -2 -3 -2 -1 -1 -1 -1 0 -9 -3 -4 -9 -42 -4 -12 -2
-32 -41 -51 -73 -9 -77 -35 -6 -15 -5 -5 -45 -63 -64 -41 -52 -46 -30 -5 -3 -10 -13 -3 -10 -26 -34 -18 -21 -9 -2 -7 -3 -1 -2 -4 -8 -2 0 0 -1 -1 0 -4 -5 -4 -29 -16 -4 -15
0 -102 -98 -41 0 -61 0 -8 -90 -22 -11 -5 -31 -27 -47 -34 -31 -27 -8 -5 -29 -45 -37 -21 -24 -41 -47 -32 -31 -12 -1 -6 -3 -2 -2 -2 -3 -6 -4 -1 -2 0 0 -9 -10 -21 -18 -10 -9
0 0 0 0 -2 -20 -6 -9 -81 -234 -37 -38 -22 -27 -30 -21 -26 -28 -31 -19 -36 -62 -64 -58 -43 -49 -54 -43 -38 -35 -22 -13 -12 -10 -2 -3 -2 -5 -15 -9 -1 -2 0 -1 -12 -12 -2 -16 -31
0 0 0 0 -6 -8 -45 -57 -5 -47 -33 -44 -86 -18 -29 -25 -5 -21 -24 -40 -54 -72 -76 -66 -61 -51 -64 -59 -48 -37 -29 -14 -11 -12 -2 -3 -4 -4 -5 -2 -1 -1 0 0 -5 -8 -20 -32 -55
0 0 0 0 -11 -11 -30 -57 -41 -35 -58 -47 -31 -11 -19 -26 -16 -19 -6 -28 -56 -83 -79 -68 -75 -58 -59 -59 -57 -51 -44 -33 -9 -12 -4 -4 -7 -1 -9 -11 0 -1 -1 0 0 -5 -25 -55 -103
0 0 0 0 0 -6 -7 -3 -5 -11 -39 -9 -8 -14 -11 -17 -30 -13 -8 -14 -31 -44 -54 -63 -75 -72 -69 -66 -73 -75 -56 -51 -36 -28 -25 -7 -2 -1 -5 -2 0 -1 0 -1 -1 -1 -16 -54 -95
0 0 0 0 0 0 -6 -11 -41 0 -11 -22 -5 -12 -5 -8 -25 -9 -6 -13 -10 -11 -28 -50 -61 -84 -106 -96 -86 -58 -64 -57 -45 -37 -41 -34 -26 -15 -11 -3 -1 -1 -1 -1 0 -1 -2 -30 -77
0 0 0 0 0 0 -1 -1 0 0 -67 -7 -8 -15 -23 -11 -6 -15 -3 -12 -5 -16 -44 -68 -84 -100 -101 -80 -169 -88 -36 -61 -48 -47 -42 -43 -36 -28 -28 -18 -8 -2 0 -1 -1 -4 -3 -17 -39
Wind_Speed
22 21 17 15 23 24 28 27 27 26 23 22 25 22 22 14 16 14 31 33 23 28 29 28 26 25 26 26 31 33 32 31 30 30 30 29 28 28 26 27 27 26 26 25 24 25 26 26 27
16 16 15 14 25 28 29 26 23 24 27 28 24 23 24 23 27 33 28 33 32 33 33 29 22 23 26 29 30 29 30 30 28 28 28 26 25 25 25 23 23 24 23 22 22 23 23 25 26
16 13 13 10 15 18 21 24 25 25 20 25 25 21 24 28 30 27 28 36 34 31 17 20 26 27 25 26 26 28 28 29 28 27 26 24 23 21 22 21 20 20 19 20 20 20 21 23 25
15 15 16 21 21 23 23 25 25 23 17 24 27 25 35 27 36 38 38 36 33 34 30 30 29 28 26 26 25 26 27 27 26 25 24 23 21 20 20 19 18 17 17 16 17 18 19 21 23
14 16 30 28 24 21 18 25 25 24 24 21 27 29 31 22 35 38 36 34 34 25 31 31 27 27 25 25 25 25 26 25 24 23 22 21 20 19 18 18 17 16 15 15 17 18 18 19 22
10 19 29 28 24 22 21 25 24 23 20 25 25 29 27 32 33 34 34 31 17 30 26 27 27 26 25 26 23 24 24 23 23 22 21 19 19 19 18 18 17 17 17 17 17 18 19 20 21
15 25 29 29 26 19 15 21 22 24 25 25 29 28 27 31 31 31 32 19 30 16 17 25 27 25 26 24 22 22 22 22 21 20 20 19 18 18 18 19 19 18 18 19 19 19 20 22 22
12 27 28 27 26 23 22 20 17 21 25 28 25 24 29 30 31 29 29 26 29 20 23 23 26 26 27 25 23 22 21 22 21 21 20 19 20 19 18 19 17 17 18 18 19 19 21 22 22
13 14 26 26 26 23 25 22 17 23 26 24 20 25 26 27 30 28 28 27 25 26 23 23 24 23 25 18 22 22 22 21 21 20 20 19 18 19 18 18 17 15 16 17 18 18 20 21 21
4 15 25 15 25 26 24 23 26 24 22 22 24 25 26 27 26 26 26 24 24 25 25 20 21 13 20 11 16 21 20 20 20 19 19 17 18 17 11 18 16 16 16 17 17 18 19 20 20
14 24 26 19 11 26 26 25 23 22 21 21 22 25 28 27 25 23 23 22 21 22 24 7 7 7 19 12 20 19 14 20 17 19 18 17 16 17 13 15 15 15 15 16 17 17 17 19 19
25 24 25 25 22 25 21 24 23 7 18 22 22 25 26 26 25 23 24 21 19 22 22 20 16 15 20 18 20 18 17 18 17 16 18 18 14 14 17 17 17 17 16 16 17 17 17 17 18
24 23 23 24 24 24 22 23 23 24 24 25 26 25 23 24 23 22 21 20 20 21 20 20 16 14 17 18 18 17 16 17 16 14 17 17 9 17 17 15 15 16 16 16 16 16 16 16 19
22 23 21 21 22 21 21 23 22 24 25 26 27 26 24 23 21 19 20 18 19 19 16 16 17 15 16 16 15 16 15 13 15 15 16 17 14 17 17 16 17 16 17 17 17 16 15 16 17
22 22 21 20 19 19 20 22 21 23 24 25 25 25 24 23 22 19 18 17 17 16 13 13 14 14 14 13 14 15 15 15 13 12 14 13 14 17 15 16 12 17 18 17 17 16 16 13 17
18 18 18 17 17 17 17 20 20 22 23 24 23 23 23 23 22 20 19 18 16 15 12 10 11 11 11 11 12 13 13 14 13 14 13 15 16 16 16 16 14 18 16 17 18 16 16 13 15
19 16 17 17 16 17 16 19 19 20 21 22 22 21 21 22 22 20 19 19 17 15 13 13 13 12 12 11 12 9 12 17 18 16 12 13 14 14 15 11 18 15 16 17 15 15 14 11 10
14 16 16 16 16 16 16 18 18 19 20 20 21 21 21 20 21 21 19 18 17 17 17 14 13 12 11 11 9 10 11 19 18 17 14 14 15 15 16 16 18 14 16 16 18 17 16 16 14
15 15 14 15 16 15 14 15 15 18 19 18 20 20 20 21 21 20 20 18 17 17 17 17 14 12 11 10 9 9 9 11 19 13 14 16 14 14 14 16 16 14 17 18 17 15 15 14 14
10 13 11 13 12 15 12 11 13 15 17 18 18 18 19 19 20 20 20 20 18 18 17 17 17 15 14 12 8 9 15 12 15 13 14 17 12 14 13 14 15 13 16 16 15 14 10 14 13
17 20 15 14 16 12 8 7 7 14 17 17 16 16 17 18 19 19 20 21 19 18 17 18 18 17 18 20 11 8 19 18 17 9 17 10 12 12 13 14 13 14 12 14 15 15 17 8 11
23 4 13 11 6 12 11 0 30 18 16 16 16 16 16 17 17 19 19 20 19 18 18 18 18 18 17 18 17 11 14 16 7 18 15 13 11 12 12 13 13 13 11 15 13 18 19 18 14
29 20 19 10 4 18 10 4 10 7 14 11 16 17 17 16 18 18 19 17 18 17 17 17 18 18 18 16 21 8 18 7 18 20 17 17 13 11 12 13 13 13 12 13 15 17 20 17 18
25 31 19 1 9 14 20 11 9 9 8 12 16 17 17 17 19 19 19 18 15 15 15 15 15 16 17 16 16 16 8 21 20 15 19 14 7 11 12 13 13 13 13 13 17 18 18 19 18
16 17 15 3 2 2 9 9 8 4 19 14 12 14 17 18 21 20 19 18 16 16 14 13 12 12 13 15 15 16 15 8 11 17 9 21 11 9 10 13 13 14 13 14 15 15 16 14 15
17 17 10 9 7 8 15 10 13 11 14 14 15 11 16 18 21 20 18 18 18 17 16 14 11 11 12 13 11 12 14 14 11 6 23 18 15 13 10 12 13 13 14 14 13 13 14 11 10
17 14 34 36 35 23 13 11 9 13 15 17 12 9 15 16 20 19 18 19 18 17 17 15 13 12 13 12 10 8 6 11 11 12 6 20 24 21 12 10 11 12 13 13 14 13 11 9 9
31 26 12 24 26 28 15 23 16 10 12 10 9 5 12 12 16 17 18 15 16 14 13 16 15 15 12 11 9 7 5 3 4 4 9 22 23 18 17 8 9 10 11 11 12 12 12 10 9
16 24 22 29 13 20 17 7 11 8 13 14 6 5 7 9 12 13 14 15 14 12 11 12 16 15 13 14 8 4 0 9 6 5 7 15 10 8 4 6 8 8 8 9 9 10 10 9 9
24 18 30 18 20 23 26 32 21 14 16 14 5 3 4 4 9 9 11 11 11 12 13 14 16 13 13 11 9 10 7 28 18 18 7 18 14 7 7 5 7 6 5 5 5 5 5 5 6
Wind_Direction
128 135 144 147 112 85 58 56 65 55 40 37 69 56 56 360 57 80 107 124 178 155 152 155 160 160 158 159 146 134 131 135 140 135 134 127 121 115 116 107 107 102 92 98 104 96 86 85 86
149 146 140 139 102 63 76 61 45 54 67 62 48 53 49 55 75 96 97 155 150 149 140 151 171 169 161 151 147 144 143 131 144 143 137 134 132 124 114 122 122 111 104 103 103 97 92 91 91
149 158 147 146 11 28 45 57 67 67 49 58 61 42 55 73 86 93 151 140 141 152 170 172 161 159 161 160 160 148 150 142 139 142 140 136 130 136 121 125 135 123 123 114 110 106 107 103 100
143 138 142 31 32 39 50 67 81 62 35 60 74 62 90 130 105 119 130 117 145 128 145 151 153 154 159 160 161 155 149 147 144 145 141 142 140 135 127 134 135 145 136 130 125 123 113 109 115
136 133 73 54 38 30 27 92 97 78 73 54 83 91 98 151 101 127 126 115 116 88 111 133 155 157 162 162 163 159 147 145 148 144 147 150 149 139 125 138 143 146 144 137 138 135 123 130 123
148 119 69 66 46 33 37 112 88 67 62 108 84 94 90 117 112 121 130 112 75 112 99 128 156 161 165 158 168 162 154 155 150 150 148 158 152 137 129 143 135 131 130 132 131 132 125 133 129
135 96 77 79 61 23 9 72 63 80 85 85 100 91 99 114 118 117 129 80 124 72 75 106 152 165 157 163 171 169 164 156 161 156 153 153 157 145 136 133 118 124 124 120 121 131 122 123 133
156 67 57 68 66 49 49 41 28 65 75 105 92 102 115 118 124 117 116 105 130 87 98 99 118 126 134 145 164 169 170 145 152 145 149 157 142 137 133 124 138 123 114 118 117 127 115 116 125
142 93 49 41 64 60 91 51 30 73 94 110 141 112 110 114 121 120 122 121 113 124 111 115 117 123 132 84 116 125 143 136 141 135 144 156 149 117 124 90 90 145 134 128 130 127 122 120 128
193 12 56 18 63 79 91 61 95 91 84 103 95 100 110 118 119 121 124 118 123 139 157 107 110 66 158 55 93 125 117 119 132 112 139 171 149 144 347 79 102 119 137 143 131 129 132 133 130
16 61 86 111 150 81 86 88 123 103 86 105 100 113 121 124 125 122 124 120 117 119 157 299 334 267 105 50 128 115 63 143 89 129 160 163 161 129 72 123 123 119 137 142 133 125 139 146 130
87 80 88 94 120 91 103 102 102 264 39 99 107 117 123 128 130 126 128 120 105 127 125 121 99 91 188 101 138 102 87 101 109 91 137 141 178 129 93 97 101 104 106 115 129 137 145 145 155
93 108 106 92 100 93 107 100 92 67 75 100 111 118 120 128 130 128 125 114 115 123 122 118 95 91 110 110 120 96 81 114 80 65 107 81 67 10 71 106 101 69 84 104 66 117 135 141 177
100 89 86 100 89 98 95 87 99 87 91 100 116 124 125 128 128 120 123 114 121 121 107 102 107 95 103 103 90 86 89 46 73 70 62 87 122 27 48 86 65 77 58 34 64 82 99 123 137
109 89 96 101 99 92 101 89 87 96 101 106 117 127 129 132 131 124 124 118 118 116 95 90 98 91 90 81 85 98 85 72 59 6 33 317 158 48 102 80 171 23 62 80 57 95 92 39 167
110 119 98 85 102 87 137 94 89 107 111 116 117 123 129 131 130 124 125 125 111 112 96 84 90 80 76 70 78 80 70 77 82 90 51 55 109 50 112 111 139 37 90 69 53 72 108 182 226
108 151 75 86 105 103 140 87 104 115 116 117 126 123 124 129 127 121 118 126 113 112 104 106 102 97 86 68 74 27 355 239 200 224 22 51 5 76 153 187 30 87 72 32 48 68 125 81 226
40 62 94 24 76 128 125 82 109 120 123 125 130 130 132 131 131 127 121 121 111 115 121 119 109 100 92 79 59 358 337 223 209 229 283 318 112 66 211 22 45 108 72 50 7 331 325 340 320
322 348 57 51 35 142 111 100 109 128 133 127 134 136 140 143 140 134 137 129 123 122 125 132 125 111 104 93 73 33 360 330 200 315 288 278 350 76 83 31 58 97 39 25 30 19 16 4 13
116 148 69 58 74 182 72 75 101 131 143 138 136 137 142 144 148 148 145 144 141 136 134 138 140 130 130 110 72 334 288 311 297 301 313 274 356 50 94 58 55 76 44 54 61 183 332 57 52
173 194 323 345 304 164 32 44 89 131 147 142 142 138 140 145 153 150 151 155 147 144 144 146 147 145 148 166 102 53 258 267 282 224 227 61 45 72 76 57 57 56 75 70 65 139 235 334 4
197 109 327 356 66 257 19 108 210 146 148 141 147 149 143 144 147 153 150 149 151 147 148 151 151 154 153 155 158 118 138 178 43 266 295 309 33 99 106 75 75 80 93 40 66 176 215 209 86
259 305 299 348 136 215 190 89 120 110 144 127 146 150 155 146 147 151 152 144 151 143 146 146 151 154 159 151 176 103 170 55 273 250 284 286 350 94 94 79 83 90 102 73 216 231 196 220 226
274 251 283 85 185 211 223 168 13 286 104 108 137 153 153 150 152 147 151 149 139 137 138 137 140 144 151 151 157 160 110 211 269 294 269 187 67 78 100 94 102 111 111 129 176 188 186 205 251
282 284 299 288 218 1 187 350 355 91 186 44 83 122 151 152 150 148 146 143 139 139 134 130 125 131 139 150 150 159 158 123 319 294 131 239 317 37 77 88 114 128 133 138 159 144 166 141 160
271 273 280 319 332 190 295 347 330 89 21 8 4 103 136 143 152 150 145 141 140 140 136 131 119 125 133 139 141 142 155 156 148 106 236 257 239 324 20 58 129 129 126 139 123 129 137 94 89
270 271 219 243 255 296 325 1 333 335 338 339 6 86 130 138 149 146 148 147 143 140 137 135 127 129 133 135 132 131 134 155 148 147 76 217 249 266 343 31 109 118 122 134 128 131 83 61 75
257 274 275 269 282 283 309 297 326 341 340 358 356 68 126 133 142 148 151 146 145 137 133 137 133 135 131 133 138 136 147 136 135 90 137 261 264 289 304 41 101 110 121 122 123 120 96 76 63
269 268 272 258 290 291 304 337 330 359 319 311 10 60 109 127 136 142 143 147 145 133 117 138 144 137 139 147 129 103 82 288 299 134 145 167 157 217 87 110 124 116 117 114 112 130 40 73 77
265 271 257 276 281 288 286 272 327 343 322 303 3 54 346 45 128 137 139 137 137 141 143 136 147 141 145 135 74 65 139 232 210 173 142 176 171 153 153 137 145 141 125 108 101 102 95 55 38